• In Uzbekistan
  • List of Countries
  • For 7 days
  • Water Temperature
  • Weather Map
  • Weather Widgets
  • user-avatar
    Login

    Hourly Weather Radehov

    Today, 29 February, Saturday

    Time Temperature Precipitation Wind Pressure Humidity
    00:00 -1°C° 0 mm 3 mps 739 mmHg 87%
    01:00 -1°C° 0 mm 3 mps 740 mmHg 86%
    02:00 -1°C° 0 mm 3 mps 740 mmHg 87%
    03:00 -2°C° 0 mm 3 mps 740 mmHg 88%
    04:00 -2°C° 0 mm 3 mps 740 mmHg 88%
    05:00 -2°C° 0 mm 3 mps 740 mmHg 88%
    06:00 -2°C° 0 mm 3 mps 740 mmHg 88%
    07:00 -2°C° 0 mm 4 mps 740 mmHg 87%
    08:00 -2°C° 0 mm 4 mps 740 mmHg 85%
    09:00 -1°C° 0 mm 4 mps 740 mmHg 79%
    10:00 0°C° 0 mm 4 mps 739 mmHg 72%
    11:00 +3°C° 0 mm 4 mps 739 mmHg 65%
    12:00 +2°C° 0 mm 5 mps 739 mmHg 59%
    13:00 +3°C° 0 mm 5 mps 738 mmHg 53%
    14:00 +5°C° 0 mm 5 mps 738 mmHg 46%
    15:00 +5°C° 0 mm 5 mps 737 mmHg 49%
    16:00 +4°C° 0 mm 4 mps 737 mmHg 52%
    17:00 +4°C° 0 mm 4 mps 736 mmHg 54%
    18:00 +3°C° 0 mm 4 mps 736 mmHg 56%
    19:00 +2°C° 0 mm 5 mps 736 mmHg 59%
    20:00 +1°C° 0 mm 5 mps 736 mmHg 61%
    21:00 +1°C° 0 mm 5 mps 736 mmHg 61%
    22:00 +1°C° 0 mm 5 mps 736 mmHg 61%
    23:00 +1°C° 0 mm 5 mps 735 mmHg 61%

    Tomorrow, 1 March, Sunday

    Time Temperature Precipitation Wind Pressure Humidity
    00:00 +1°C° 0 mm 5 mps 735 mmHg 61%
    01:00 +1°C° 0 mm 5 mps 735 mmHg 62%
    02:00 +1°C° 0 mm 5 mps 735 mmHg 63%
    03:00 +1°C° 0 mm 5 mps 735 mmHg 63%
    04:00 +1°C° 0 mm 5 mps 734 mmHg 62%
    05:00 +1°C° 0 mm 5 mps 734 mmHg 62%
    06:00 +1°C° 0 mm 5 mps 734 mmHg 63%
    07:00 +1°C° 0 mm 5 mps 734 mmHg 65%
    08:00 +1°C° 0 mm 5 mps 734 mmHg 66%
    09:00 +2°C° 0 mm 6 mps 735 mmHg 63%
    10:00 +3°C° 0 mm 6 mps 735 mmHg 59%
    11:00 +5°C° 0 mm 6 mps 735 mmHg 56%
    12:00 +5°C° 0 mm 6 mps 735 mmHg 58%
    13:00 +5°C° 0 mm 6 mps 735 mmHg 61%
    14:00 +7°C° 0 mm 6 mps 735 mmHg 63%
    15:00 +7°C° 0 mm 5 mps 734 mmHg 66%
    16:00 +6°C° 0 mm 4 mps 734 mmHg 68%
    17:00 +6°C° 0 mm 4 mps 734 mmHg 71%
    18:00 +5°C° 0 mm 3 mps 734 mmHg 73%
    19:00 +5°C° 0 mm 3 mps 734 mmHg 76%
    20:00 +4°C° 0 mm 3 mps 735 mmHg 78%
    21:00 +4°C° 0 mm 3 mps 734 mmHg 80%
    22:00 +4°C° 0 mm 4 mps 734 mmHg 82%
    23:00 +3°C° 0 mm 4 mps 734 mmHg 84%

    Day after tomorrow, 2 March, Monday

    Time Temperature Precipitation Wind Pressure Humidity
    00:00 +3°C° 0 mm 3 mps 734 mmHg 86%
    01:00 +3°C° 0 mm 3 mps 734 mmHg 87%
    02:00 +3°C° 0 mm 2 mps 734 mmHg 89%
    03:00 +4°C° 0 mm 2 mps 733 mmHg 89%
    04:00 +3°C° 0 mm 3 mps 733 mmHg 89%
    05:00 +3°C° 0 mm 3 mps 733 mmHg 89%
    06:00 +3°C° 0 mm 3 mps 732 mmHg 87%
    07:00 +4°C° 0 mm 4 mps 732 mmHg 86%
    08:00 +5°C° 0 mm 4 mps 731 mmHg 85%
    09:00 +5°C° 0.3 mm 4 mps 731 mmHg 85%
    10:00 +5°C° 0.3 mm 5 mps 730 mmHg 84%
    11:00 +6°C° 0.3 mm 5 mps 730 mmHg 83%
    12:00 +6°C° 0.4 mm 5 mps 729 mmHg 79%
    13:00 +6°C° 0.4 mm 5 mps 729 mmHg 75%
    14:00 +7°C° 0.4 mm 5 mps 728 mmHg 72%
    15:00 +7°C° 0 mm 5 mps 728 mmHg 73%
    16:00 +7°C° 0 mm 5 mps 728 mmHg 74%
    17:00 +8°C° 0 mm 5 mps 727 mmHg 75%
    18:00 +7°C° 0.1 mm 5 mps 728 mmHg 79%
    19:00 +6°C° 0.1 mm 5 mps 728 mmHg 83%
    20:00 +5°C° 0.1 mm 4 mps 728 mmHg 87%
    21:00 +5°C° 0 mm 4 mps 729 mmHg 88%
    22:00 +4°C° 0 mm 3 mps 730 mmHg 89%
    23:00 +4°C° 0 mm 2 mps 730 mmHg 90%

    3 March, Tuesday

    Time Temperature Precipitation Wind Pressure Humidity
    00:00 +4°C° 0 mm 2 mps 731 mmHg 90%
    01:00 +4°C° 0 mm 2 mps 731 mmHg 90%
    02:00 +4°C° 0 mm 2 mps 731 mmHg 90%
    03:00 +3°C° 0 mm 3 mps 731 mmHg 89%
    04:00 +3°C° 0 mm 3 mps 731 mmHg 87%
    05:00 +3°C° 0 mm 3 mps 731 mmHg 86%
    06:00 +3°C° 0 mm 4 mps 731 mmHg 83%
    07:00 +4°C° 0 mm 4 mps 731 mmHg 80%
    08:00 +3°C° 0 mm 5 mps 731 mmHg 77%
    09:00 +6°C° 0 mm 5 mps 731 mmHg 70%
    10:00 +9°C° 0 mm 6 mps 731 mmHg 62%
    11:00 +11°C° 0 mm 7 mps 730 mmHg 55%
    12:00 +11°C° 0 mm 6 mps 730 mmHg 55%
    13:00 +13°C° 0 mm 6 mps 730 mmHg 55%
    14:00 +13°C° 0 mm 6 mps 730 mmHg 55%
    15:00 +13°C° 0 mm 5 mps 729 mmHg 59%
    16:00 +12°C° 0 mm 4 mps 729 mmHg 63%
    17:00 +12°C° 0 mm 3 mps 729 mmHg 67%
    18:00 +11°C° 0 mm 3 mps 729 mmHg 70%
    19:00 +10°C° 0 mm 2 mps 729 mmHg 73%
    20:00 +10°C° 0 mm 2 mps 730 mmHg 76%
    21:00 +10°C° 0 mm 2 mps 730 mmHg 76%
    22:00 +11°C° 0 mm 1 mps 730 mmHg 77%
    23:00 +11°C° 0 mm 1 mps 730 mmHg 77%

    4 March, Wednesday

    Time Temperature Precipitation Wind Pressure Humidity
    00:00 +9°C° 0 mm 2 mps 730 mmHg 82%
    01:00 +8°C° 0 mm 3 mps 730 mmHg 86%
    02:00 +7°C° 0 mm 3 mps 730 mmHg 91%
    03:00 +7°C° 0 mm 3 mps 730 mmHg 91%
    04:00 +6°C° 0 mm 4 mps 730 mmHg 92%
    05:00 +5°C° 0 mm 4 mps 730 mmHg 93%
    06:00 +5°C° 0 mm 4 mps 729 mmHg 93%
    07:00 +5°C° 0 mm 4 mps 729 mmHg 93%
    08:00 +5°C° 0 mm 4 mps 729 mmHg 93%
    09:00 +5°C° 0.1 mm 4 mps 729 mmHg 92%
    10:00 +5°C° 0.1 mm 4 mps 729 mmHg 92%
    11:00 +7°C° 0.1 mm 3 mps 729 mmHg 91%
    12:00 +7°C° 0.2 mm 3 mps 728 mmHg 91%
    13:00 +7°C° 0.2 mm 3 mps 728 mmHg 91%
    14:00 +7°C° 0.2 mm 3 mps 728 mmHg 91%
    15:00 +5°C° 0.1 mm 3 mps 727 mmHg 92%
    16:00 +5°C° 0.1 mm 4 mps 727 mmHg 93%
    17:00 +5°C° 0.1 mm 5 mps 727 mmHg 94%
    18:00 +3°C° 0.4 mm 5 mps 726 mmHg 94%
    19:00 +3°C° 0.4 mm 6 mps 726 mmHg 94%
    20:00 +3°C° 0.4 mm 6 mps 726 mmHg 94%
    21:00 +3°C° 0.9 mm 6 mps 725 mmHg 94%
    22:00 +3°C° 0.9 mm 6 mps 725 mmHg 94%
    23:00 +3°C° 0.9 mm 6 mps 725 mmHg 94%

    5 March, Thursday

    Time Temperature Precipitation Wind Pressure Humidity
    00:00 +3°C° 1.3 mm 6 mps 725 mmHg 94%
    01:00 +2°C° 1.3 mm 7 mps 725 mmHg 94%
    02:00 +1°C° 1.3 mm 8 mps 725 mmHg 94%
    03:00 0°C° 0.7 mm 8 mps 726 mmHg 94%
    04:00 -1°C° 0.7 mm 8 mps 726 mmHg 95%
    05:00 -1°C° 0.7 mm 8 mps 727 mmHg 95%
    06:00 -2°C° 0.2 mm 8 mps 727 mmHg 95%
    07:00 -2°C° 0.2 mm 8 mps 728 mmHg 95%
    08:00 -2°C° 0.2 mm 8 mps 729 mmHg 95%
    09:00 -2°C° 0.1 mm 8 mps 729 mmHg 91%
    10:00 -1°C° 0.1 mm 7 mps 730 mmHg 86%
    11:00 -1°C° 0.1 mm 7 mps 731 mmHg 82%
    12:00 0°C° 0 mm 7 mps 732 mmHg 80%
    13:00 +1°C° 0 mm 6 mps 732 mmHg 79%
    14:00 +2°C° 0 mm 6 mps 732 mmHg 78%
    15:00 +2°C° 0 mm 5 mps 733 mmHg 76%
    16:00 +2°C° 0 mm 5 mps 733 mmHg 74%
    17:00 +3°C° 0 mm 4 mps 733 mmHg 72%
    18:00 +3°C° 0 mm 3 mps 733 mmHg 76%
    19:00 +2°C° 0 mm 3 mps 734 mmHg 79%
    20:00 +2°C° 0 mm 2 mps 734 mmHg 83%
    21:00 +2°C° 0 mm 2 mps 734 mmHg 85%
    22:00 +2°C° 0 mm 2 mps 735 mmHg 87%
    23:00 +1°C° 0 mm 2 mps 735 mmHg 89%
    Show more